Location: Cactus School
(34.5700°N, 118.0931°W)
Time: 10:59:05
(UTC-08:00)

Vanguard 1 Rocket - All Passes

Search period start: 20 November 2019 00:00
Search period end: 30 November 2019 00:00
Orbit: 651 x 4226 km, 34.3° (Epoch: 19 November)

Date Brightness Start Highest point End Pass type
(mag) Time Alt. Az. Time Alt. Az. Time Alt. Az.
20 Nov - 01:50:15 10° SW 01:55:13 38° SSE 01:59:18 10° E night (unlit)
20 Nov - 04:15:23 10° W 04:19:45 87° S 04:25:06 10° E visible
20 Nov - 06:39:42 10° W 06:44:41 61° SSW 06:53:09 10° ESE daylight
20 Nov - 09:04:38 10° W 09:10:49 27° SSW 09:20:51 10° SSE daylight
21 Nov - 00:39:07 10° SSW 00:44:20 25° SSE 00:48:12 10° ESE night (unlit)
21 Nov - 03:04:19 10° WSW 03:09:00 73° SSE 03:13:33 10° E visible
21 Nov - 05:29:13 10° W 05:33:43 77° S 05:40:19 10° ESE visible
21 Nov - 07:53:36 10° W 07:59:04 35° SSW 08:08:18 10° SE daylight
21 Nov - 10:22:08 10° SW 10:26:17 13° SSW 10:31:27 10° S daylight
21 Nov - 23:28:18 10° SSW 23:33:05 17° SSE 23:36:41 10° ESE night (unlit)
22 Nov - 01:52:52 10° WSW 01:58:16 52° SSE 02:02:32 10° E night (unlit)
22 Nov - 04:18:30 10° W 04:22:53 88° S 04:28:07 10° E visible
22 Nov - 06:42:56 10° W 06:47:46 47° SSW 06:55:37 10° SE daylight
22 Nov - 09:08:48 10° WSW 09:13:59 19° SSW 09:21:25 10° SSE daylight
22 Nov - 22:19:04 10° S 22:21:25 11° SSE 22:23:28 10° SE night (unlit)
23 Nov - 00:41:10 10° SW 00:47:24 35° SSE 00:51:43 10° E night (unlit)
23 Nov - 03:07:20 10° W 03:12:06 84° S 03:16:38 10° E visible
23 Nov - 05:32:22 10° W 05:36:48 64° SSW 05:43:09 10° ESE visible
23 Nov - 07:57:13 10° WSW 08:02:11 26° SSW 08:09:52 10° SSE daylight
23 Nov - 23:29:26 10° SSW 23:36:13 25° SSE 23:40:46 10° ESE night (unlit)
24 Nov - 01:55:39 10° WSW 02:01:21 66° SSE 02:05:42 10° E night (unlit)
24 Nov - 04:21:37 10° W 04:26:00 82° S 04:31:09 10° E visible
24 Nov - 06:46:17 10° W 06:50:51 35° SSW 06:57:51 10° SE daylight
24 Nov - 09:14:25 10° SW 09:17:11 12° SSW 09:20:28 10° S daylight
24 Nov - 22:18:05 10° SSW 22:24:36 18° SSE 22:29:14 10° ESE visible
25 Nov - 00:43:31 10° SW 00:50:29 48° SSE 00:55:02 10° E night (unlit)
25 Nov - 03:10:24 10° W 03:15:14 88° S 03:19:44 10° E visible
25 Nov - 05:35:34 10° W 05:39:52 50° SSW 05:45:51 10° ESE visible
25 Nov - 08:01:18 10° WSW 08:05:20 17° SSW 08:10:50 10° SSE daylight
25 Nov - 21:08:14 10° S 21:12:30 12° SSE 21:16:01 10° SE visible
25 Nov - 23:31:08 10° SW 23:39:20 35° SSE 23:44:22 10° E night (unlit)
26 Nov - 01:58:33 10° WSW 02:04:27 79° S 02:08:50 10° E night (unlit)
26 Nov - 04:24:43 10° W 04:29:06 70° SSW 04:34:07 10° ESE visible
26 Nov - 06:49:50 10° WSW 06:53:57 25° SSW 06:59:46 10° SSE daylight
26 Nov - 22:18:49 10° SSW 22:27:46 26° SSE 22:33:23 10° ESE visible
27 Nov - 00:46:05 10° WSW 00:53:33 62° SSE 00:58:16 10° E night (unlit)
27 Nov - 03:13:28 10° W 03:18:22 86° S 03:22:49 10° E visible
27 Nov - 05:38:50 10° W 05:42:56 36° SSW 05:48:22 10° SE visible
27 Nov - 08:07:17 10° SW 08:08:31 10° SSW 08:09:51 10° SSW daylight
27 Nov - 21:07:04 10° SSW 21:15:42 19° SSE 21:21:37 10° ESE visible
27 Nov - 23:33:12 10° SW 23:42:26 47° SSE 23:47:45 10° E night (unlit)
28 Nov - 02:01:31 10° W 02:07:33 86° S 02:11:58 10° E night (unlit)
28 Nov - 04:27:51 10° W 04:32:11 56° SSW 04:37:01 10° ESE visible
28 Nov - 06:53:49 10° WSW 06:57:03 16° SSW 07:01:08 10° SSE daylight
28 Nov - 19:57:04 10° S 20:03:07 13° SSE 20:07:56 10° SE visible
28 Nov - 22:20:09 10° SW 22:30:54 36° SSE 22:37:03 10° E visible
29 Nov - 00:48:49 10° WSW 00:56:38 74° S 01:01:25 10° E night (unlit)
29 Nov - 03:16:31 10° W 03:21:29 78° S 03:25:54 10° ESE visible
29 Nov - 05:42:17 10° W 05:45:59 25° SSW 05:50:37 10° SSE visible
29 Nov - 21:07:22 10° SSW 21:18:51 27° SSE 21:25:52 10° E visible
29 Nov - 23:35:30 10° WSW 23:45:29 59° SSE 23:51:00 10° E night (unlit)
